NIMBUS 2 DEB, 28619

Orbit data source: Space-Track

NIMBUS 2 DEB, 28619 is space debris in LEO originally from a launch on Sun, 15 May 1966 UTC launched from the Air Force Western Test Range (AFWTR). Debris objects in space refer to the collection of defunct objects orbiting the Earth. Examples of debris include non-operational satellites, rocket bodies, and fragments generated from explosions, collisions, or faulty payload assembly.

Loading next visibility...
NIMBUS 2 DEB details
Identifier
28619, 1966-040AJ
Orbit
LEO
Last TLE update1 day ago
Origin
Flag of USGSFC (US)
ManufacturerUnknown
MissionSpacecraft
Bus & MotorUnknown
MassUnknown
Launch date (UTC)
1966-05-15 (59 years ago)
Launch vehicleUnknown
Launch site
Air Force Western Test Range (AFWTR)
Object type
Payload
Rocket body
Debris
Shape & HBRUnknown
Radar Cross SectionSmall (<0.1 m²)

Expand to show TLE details & history

TLE from 1 day ago
0 NIMBUS 2 DEB
1 28619U 66040AJ  24347.56787448  .00007412  00000-0  70184-2 0  9997
2 28619 100.3267 103.7406 0044231 219.7285 151.9076 13.80910461 38964
Epoch: 2024-12-12T13:37Z
Definitive object data (Epoch: 2024-12-12T13:37:44.355Z)
Latitude11.63579°
Longitude175.42027°
Altitude991.38 km
Speed7.343 km/s
True Right ascension06h 46m 24s
True Declination11° 34' 13"
Sunlit
Object was in full shadow at TLE epoch
Visualization TLE readout
Latitude57.10515°
Longitude162.40168°
Altitude1,000.289 km
Speed7.342 km/s
Apparent Right ascension03h 00m 07s
Apparent Declination16° 48' 59"
Sunlit
Object is in full shadow
Visualization observer readout
Local Sidereal Time12:42:34
Azimuth323.431° NNW
Elevation-24.85°
Doppler factor1
Orbital elements
Apogee altitude990.401 km
Perigee altitude925.505 km
Semi-major axis7,336.09 km
Eccentricity0.0044231
Inclination100.3267°
RAAN103.7406°
Arg. of periapsis219.7285°
True anomaly152.14511°
Mean anomaly151.9076°
Eccentric anomaly152.02647°
Mean motion3.45419 °/min
BSTAR0.0070184
Orbital period104.22 mins
Loading maneuver chart data...
Loading historical data...
Loading historical data...
Loading historical data...
Loading historical data...
Loading historical data...
Loading historical data...
Loading historical data...

NIMBUS 2 DEB Visibility forecast

Observer location: undefined°, undefined

Span
Click to sort rows by Start time (UTC) header in descending order
Start Az.
Max El. time (UTC)
Max El. Az.
Max El.
End time (UTC)
End Az.
8 mins2024-12-13 19:45:01.312Z47.034° ENE2024-12-13 19:49:01.312Z90.936° ESE20.545°2024-12-13 19:53:01.312Z138.627° SSE
10 mins2024-12-13 21:28:01.312Z1.777° NNE2024-12-13 21:32:01.312Z303.404° NW38.772°2024-12-13 21:38:01.312Z215.986° SW
10 mins2024-12-14 07:26:01.312Z143.883° SSE2024-12-14 07:31:01.312Z49.513° ENE40.386°2024-12-14 07:36:01.312Z353.112° N
7 mins2024-12-14 09:11:01.312Z233.92° WSW2024-12-14 09:14:01.312Z270.586° WNW19.659°2024-12-14 09:18:01.312Z312.194° NW
|